Location: Dover
(39.1580°N, 75.5250°W)
Time: 02:19:09
(UTC-04:00)

SeaSat 1 - Visible Passes

Search period start: 21 August 2017 00:00
Search period end: 31 August 2017 00:00
Orbit: 746 x 747 km, 108.0° (Epoch: 20 August)

Date Brightness Start Highest point End Pass type
(mag) Time Alt. Az. Time Alt. Az. Time Alt. Az.
21 Aug 5.4 05:42:29 10° E 05:45:54 19° NE 05:49:19 10° N visible
21 Aug 2.4 21:03:35 10° NNE 21:08:33 89° ESE 21:13:29 10° SSW visible
21 Aug 5.5 22:42:54 10° NNW 22:45:24 14° NW 22:47:53 10° WNW visible
22 Aug 3.1 20:22:01 10° NE 20:26:26 32° ESE 20:30:48 10° S visible
22 Aug 4.2 21:59:31 10° N 22:03:52 32° NW 22:08:13 10° WSW visible
23 Aug 2.5 21:17:06 10° NNE 21:22:04 84° WNW 21:26:59 10° SSW visible
23 Aug 5.5 22:56:43 10° NNW 22:58:51 13° NW 23:01:00 10° WNW visible
24 Aug 3.0 20:35:27 10° NE 20:39:59 36° ESE 20:44:28 10° S visible
24 Aug 4.3 22:13:07 10° N 22:17:22 30° NW 22:21:36 10° WSW visible
25 Aug 2.6 21:30:39 10° NNE 21:35:35 76° WNW 21:40:30 10° SSW visible
25 Aug 5.5 23:10:36 10° NNW 23:12:19 12° NW 23:14:02 10° WNW visible
26 Aug 2.8 20:48:54 10° NE 20:53:32 39° ESE 20:58:08 10° S visible
26 Aug 4.4 22:26:44 10° N 22:30:52 27° NW 22:34:58 10° WSW visible
27 Aug 4.0 20:08:37 10° ENE 20:11:13 14° ESE 20:13:47 10° SE visible
27 Aug 2.7 21:44:11 10° NNE 21:49:06 69° WNW 21:53:59 10° SW visible
27 Aug 5.5 23:24:39 10° NNW 23:25:46 11° NW 23:26:53 10° WNW visible
28 Aug 5.8 05:43:57 10° NE 05:44:55 11° NE 05:45:53 10° NNE visible
28 Aug 2.7 21:02:22 10° NE 21:07:04 44° ESE 21:11:45 10° S visible
28 Aug 4.5 22:40:22 10° N 22:44:21 25° NW 22:48:19 10° WSW visible
29 Aug 3.9 20:21:48 10° ENE 20:24:47 16° ESE 20:27:43 10° SE visible
29 Aug 2.8 21:57:44 10° NNE 22:02:37 62° WNW 22:07:27 10° SW visible
30 Aug 5.6 05:56:45 10° ENE 05:58:22 12° NE 05:59:59 10° NNE visible
30 Aug 2.6 21:15:50 10° NE 21:20:37 48° ESE 21:22:59 27° S visible
30 Aug 4.6 22:54:00 10° N 22:57:50 23° NW 23:01:38 10° WSW visible
